Orbital Elements at Epoch 2459000.5 (2020-May-31.0) TDB
Reference: JPL 28 (heliocentric ecliptic J2000)
Element | Value | Uncertainty (1-sigma) | Units |
e | .1916659101049846 | 4.8049e-08 | |
a | 3.09873342422503 | 2.3307e-08 | au |
q | 2.504811862298204 | 1.5376e-07 | au |
i | 17.12412735429979 | 3.8006e-06 | deg |
node | 124.2356629150353 | 1.8888e-05 | deg |
peri | 299.7016032746971 | 2.2382e-05 | deg |
M | 24.20969536121063 | 1.0755e-05 | deg |
tp | 2458866.513335540586 (2020-Jan-18.01333554) | 5.9653e-05 | TDB |
period | 1992.391828385933 5.45 | 2.2479e-05 6.154e-08 | d yr |
n | .1806873501843467 | 2.0386e-09 | deg/d |
Q | 3.692654986151855 | 2.7774e-08 | au |
|
| | Orbit Determination Parameters
Additional Information
|